| time (UTC) | temp F | wind direction | speed knots | gust knots | rain 1hr in | rain 24hr in | rain mn in | humidity % | barometer mb |
| 20260509000047 | 64 | 0 | 0.0 | 0.0 | 0.00 | 0.00 | 0.00 | 74 | 1015.6 |
| 20260508234544 | 65 | 0 | 0.0 | 0.0 | 0.00 | 0.00 | 0.00 | 73 | 1015.5 |
| 20260508233045 | 66 | 0 | 0.0 | 0.0 | 0.00 | 0.00 | 0.00 | 72 | 1015.6 |
| 20260508231555 | 67 | 0 | 0.0 | 0.0 | 0.00 | 0.00 | 0.00 | 69 | 1015.6 |
| 20260508230047 | 67 | 0 | 0.0 | 0.9 | 0.00 | 0.00 | 0.00 | 69 | 1015.4 |
| 20260508224605 | 68 | 0 | 0.0 | 0.9 | 0.00 | 0.00 | 0.00 | 65 | 1015.3 |
| 20260508223048 | 68 | 0 | 0.0 | 2.6 | 0.00 | 0.00 | 0.00 | 61 | 1015.6 |
| 20260508221556 | 68 | 0 | 0.0 | 0.9 | 0.00 | 0.00 | 0.00 | 61 | 1015.5 |
| 20260508220049 | 68 | 0 | 0.0 | 2.6 | 0.00 | 0.00 | 0.00 | 60 | 1015.2 |
| 20260508214551 | 69 | 0 | 0.0 | 3.5 | 0.00 | 0.00 | 0.00 | 59 | 1015.3 |
| 20260508213053 | 69 | 167 | 0.9 | 3.5 | 0.00 | 0.00 | 0.00 | 56 | 1015.4 |
| 20260508211555 | 69 | 0 | 0.0 | 3.5 | 0.00 | 0.00 | 0.00 | 57 | 1015.4 |
| 20260508210046 | 69 | 0 | 0.9 | 6.1 | 0.00 | 0.00 | 0.00 | 58 | 1015.2 |
| 20260508204543 | 70 | 76 | 0.9 | 5.2 | 0.00 | 0.00 | 0.00 | 56 | 1015.3 |
| 20260508203044 | 69 | 70 | 0.0 | 4.3 | 0.00 | 0.00 | 0.00 | 56 | 1015.2 |
| 20260508201548 | 69 | 0 | 0.0 | 3.5 | 0.00 | 0.00 | 0.00 | 54 | 1015.6 |
| 20260508200105 | 70 | 237 | 0.9 | 4.3 | 0.00 | 0.00 | 0.00 | 54 | 1015.6 |
| 20260508194548 | 70 | 0 | 0.9 | 7.8 | 0.00 | 0.00 | 0.00 | 52 | 1015.9 |
| 20260508193055 | 70 | 0 | 0.9 | 7.8 | 0.00 | 0.00 | 0.00 | 49 | 1016.1 |
| 20260508191543 | 71 | 248 | 2.6 | 8.7 | 0.00 | 0.00 | 0.00 | 51 | 1016.2 |
| 20260508190046 | 70 | 0 | 0.0 | 6.1 | 0.00 | 0.00 | 0.00 | 51 | 1016.4 |
| 20260508184546 | 70 | 0 | 1.7 | 8.7 | 0.00 | 0.00 | 0.00 | 49 | 1016.8 |
| 20260508183100 | 69 | 0 | 0.9 | 6.1 | 0.00 | 0.00 | 0.00 | 56 | 1017.2 |
| 20260508181601 | 71 | 117 | 1.7 | 3.5 | 0.00 | 0.00 | 0.00 | 52 | 1017.2 |
| 20260508180054 | 69 | 270 | 3.5 | 9.6 | 0.00 | 0.00 | 0.00 | 49 | 1017.3 |
| 20260508174550 | 69 | 228 | 0.9 | 9.6 | 0.00 | 0.00 | 0.00 | 52 | 1017.4 |
| 20260508173056 | 68 | 309 | 3.5 | 7.0 | 0.00 | 0.00 | 0.00 | 52 | 1017.8 |
| 20260508171551 | 69 | 78 | 0.9 | 6.1 | 0.00 | 0.00 | 0.00 | 51 | 1017.9 |
| 20260508170048 | 68 | 17 | 0.0 | 6.1 | 0.00 | 0.00 | 0.00 | 53 | 1018.3 |
| 20260508164545 | 68 | 267 | 1.7 | 6.1 | 0.00 | 0.00 | 0.00 | 54 | 1018.4 |
| 20260508163050 | 68 | 0 | 2.6 | 6.1 | 0.00 | 0.00 | 0.00 | 53 | 1018.6 |
| 20260508161550 | 68 | 51 | 1.7 | 5.2 | 0.00 | 0.00 | 0.00 | 52 | 1018.7 |
| 20260508160100 | 67 | 63 | 0.9 | 5.2 | 0.00 | 0.00 | 0.00 | 52 | 1018.6 |
| 20260508154552 | 66 | 0 | 0.0 | 3.5 | 0.00 | 0.00 | 0.00 | 61 | 1018.9 |
| 20260508153051 | 66 | 90 | 0.0 | 2.6 | 0.00 | 0.00 | 0.00 | 57 | 1019.2 |
| 20260508151547 | 66 | 0 | 0.9 | 3.5 | 0.00 | 0.00 | 0.00 | 56 | 1019.2 |
| 20260508150119 | 66 | 46 | 0.9 | 3.5 | 0.00 | 0.00 | 0.00 | 53 | 1019.0 |
| 20260508144600 | 66 | 49 | 2.6 | 5.2 | 0.00 | 0.00 | 0.00 | 54 | 1018.9 |
| 20260508143052 | 66 | 0 | 0.0 | 3.5 | 0.00 | 0.00 | 0.00 | 65 | 1019.0 |
| 20260508141559 | 64 | 51 | 0.0 | 4.3 | 0.00 | 0.00 | 0.00 | 62 | 1019.1 |
| 20260508140057 | 63 | 0 | 0.0 | 3.5 | 0.00 | 0.00 | 0.00 | 65 | 1019.2 |
| 20260508134548 | 61 | 166 | 0.9 | 3.5 | 0.00 | 0.00 | 0.00 | 67 | 1019.5 |
| 20260508133048 | 58 | 61 | 0.0 | 3.5 | 0.00 | 0.00 | 0.00 | 73 | 1019.5 |
| 20260508131556 | 56 | 290 | 0.0 | 4.3 | 0.00 | 0.00 | 0.00 | 81 | 1019.5 |
| 20260508130047 | 53 | 0 | 0.0 | 0.0 | 0.00 | 0.00 | 0.00 | 91 | 1019.2 |
| 20260508124550 | 52 | 0 | 0.0 | 0.0 | 0.00 | 0.00 | 0.00 | 93 | 1019.1 |
| 20260508123047 | 51 | 0 | 0.0 | 0.0 | 0.00 | 0.00 | 0.00 | 93 | 1019.0 |
| 20260508121550 | 49 | 0 | 0.0 | 0.0 | 0.00 | 0.00 | 0.00 | 93 | 1018.8 |
| 20260508120049 | 47 | 0 | 0.0 | 0.0 | 0.00 | 0.00 | 0.00 | 92 | 1018.6 |
| 20260508114548 | 45 | 0 | 0.0 | 0.0 | 0.00 | 0.00 | 0.00 | 92 | 1018.6 |
| 20260508113110 | 44 | 0 | 0.0 | 0.0 | 0.00 | 0.00 | 0.00 | 91 | 1018.4 |
| 20260508111546 | 44 | 0 | 0.0 | 0.0 | 0.00 | 0.00 | 0.00 | 91 | 1017.9 |
| 20260508110046 | 44 | 0 | 0.0 | 0.0 | 0.00 | 0.00 | 0.00 | 91 | 1017.7 |
| 20260508104555 | 44 | 0 | 0.0 | 0.0 | 0.00 | 0.00 | 0.00 | 91 | 1017.7 |
| 20260508103045 | 44 | 0 | 0.0 | 0.0 | 0.00 | 0.00 | 0.00 | 91 | 1017.3 |
| 20260508101548 | 44 | 0 | 0.0 | 0.0 | 0.00 | 0.00 | 0.00 | 91 | 1017.1 |
| 20260508100043 | 45 | 0 | 0.0 | 0.9 | 0.00 | 0.00 | 0.00 | 90 | 1016.7 |
| 20260508094549 | 45 | 0 | 0.0 | 1.7 | 0.00 | 0.00 | 0.00 | 90 | 1016.6 |
| 20260508093052 | 45 | 0 | 0.0 | 1.7 | 0.00 | 0.00 | 0.00 | 90 | 1016.6 |
| 20260508091548 | 45 | 0 | 0.0 | 0.9 | 0.00 | 0.00 | 0.00 | 90 | 1016.7 |
| 20260508090050 | 45 | 0 | 0.0 | 0.0 | 0.00 | 0.00 | 0.00 | 90 | 1016.6 |
| 20260508084547 | 46 | 0 | 0.0 | 0.0 | 0.00 | 0.00 | 0.00 | 89 | 1016.7 |
| 20260508083048 | 46 | 0 | 0.0 | 0.0 | 0.00 | 0.00 | 0.00 | 89 | 1016.5 |
| 20260508081555 | 46 | 0 | 0.0 | 0.0 | 0.00 | 0.00 | 0.00 | 89 | 1016.6 |
| 20260508080045 | 46 | 0 | 0.0 | 0.0 | 0.00 | 0.00 | 0.00 | 89 | 1016.3 |
| 20260508074550 | 47 | 0 | 0.0 | 0.0 | 0.00 | 0.00 | 0.00 | 89 | 1016.1 |
| 20260508073103 | 47 | 0 | 0.0 | 0.0 | 0.00 | 0.00 | 0.00 | 89 | 1016.3 |
| 20260508071545 | 47 | 0 | 0.0 | 0.0 | 0.00 | 0.00 | 0.00 | 88 | 1016.1 |
| 20260508070050 | 48 | 0 | 0.0 | 0.0 | 0.00 | 0.00 | 0.00 | 88 | 1016.2 |
| 20260508064602 | 48 | 0 | 0.0 | 0.0 | 0.00 | 0.00 | 0.00 | 88 | 1015.9 |
| 20260508063048 | 48 | 0 | 0.0 | 0.0 | 0.00 | 0.00 | 0.00 | 88 | 1015.9 |
| 20260508061554 | 49 | 0 | 0.0 | 0.0 | 0.00 | 0.00 | 0.00 | 88 | 1015.8 |
| 20260508060049 | 49 | 0 | 0.0 | 0.9 | 0.00 | 0.00 | 0.00 | 87 | 1015.8 |
| 20260508054605 | 49 | 0 | 0.0 | 0.9 | 0.00 | 0.00 | 0.00 | 86 | 1015.8 |
| 20260508053044 | 50 | 0 | 0.0 | 0.0 | 0.00 | 0.00 | 0.00 | 85 | 1015.9 |
| 20260508051547 | 50 | 0 | 0.0 | 0.9 | 0.00 | 0.00 | 0.00 | 85 | 1015.9 |
| 20260508050050 | 51 | 0 | 0.0 | 0.0 | 0.00 | 0.00 | 0.00 | 84 | 1015.8 |
| 20260508044544 | 52 | 291 | 0.0 | 0.0 | 0.00 | 0.00 | 0.00 | 84 | 1015.7 |
| 20260508043056 | 52 | 0 | 0.0 | 1.7 | 0.00 | 0.00 | 0.00 | 83 | 1015.6 |
| 20260508041544 | 53 | 0 | 0.0 | 0.9 | 0.00 | 0.00 | 0.00 | 82 | 1015.6 |
| 20260508040057 | 54 | 0 | 0.0 | 1.7 | 0.00 | 0.00 | 0.00 | 82 | 1015.5 |
| 20260508034547 | 54 | 289 | 0.0 | 1.7 | 0.00 | 0.00 | 0.00 | 80 | 1015.6 |
| 20260508033045 | 55 | 0 | 0.0 | 2.6 | 0.00 | 0.00 | 0.00 | 78 | 1015.6 |
| 20260508031552 | 56 | 0 | 0.0 | 1.7 | 0.00 | 0.00 | 0.00 | 75 | 1015.6 |
| 20260508030046 | 57 | 0 | 0.0 | 0.0 | 0.00 | 0.00 | 0.00 | 72 | 1015.4 |
| 20260508024548 | 58 | 0 | 0.0 | 0.0 | 0.00 | 0.00 | 0.00 | 71 | 1015.3 |
| 20260508023046 | 58 | 0 | 0.0 | 2.6 | 0.00 | 0.00 | 0.00 | 70 | 1014.8 |
| 20260508021544 | 58 | 0 | 0.9 | 7.8 | 0.00 | 0.00 | 0.00 | 69 | 1014.7 |
| 20260508020042 | 58 | 0 | 0.9 | 6.1 | 0.00 | 0.00 | 0.00 | 71 | 1014.5 |
| 20260508014545 | 58 | 0 | 0.9 | 5.2 | 0.00 | 0.00 | 0.00 | 71 | 1014.3 |
| 20260508013046 | 59 | 261 | 1.7 | 8.7 | 0.00 | 0.00 | 0.00 | 72 | 1014.0 |
| 20260508011550 | 59 | 0 | 0.9 | 8.7 | 0.00 | 0.00 | 0.00 | 73 | 1013.7 |
| 20260508010046 | 60 | 248 | 0.9 | 3.5 | 0.00 | 0.00 | 0.00 | 73 | 1013.5 |
| 20260508004544 | 60 | 0 | 0.0 | 7.8 | 0.00 | 0.00 | 0.00 | 72 | 1013.4 |
| 20260508003045 | 61 | 0 | 0.9 | 6.1 | 0.00 | 0.00 | 0.00 | 72 | 1013.1 |
| 20260508001547 | 62 | 20 | 0.9 | 6.1 | 0.00 | 0.00 | 0.00 | 71 | 1012.8 |